Time,TemperatureF,DewpointF,PressureIn,WindDirection,WindDirectionDegrees,WindSpeedMPH,WindSpeedGustMPH,Humidity,HourlyPrecipIn,Conditions,Clouds,dailyrainin,SolarRadiationWatts/m^2,SoftwareType,DateUTC
2013-11-30 00:01:00,18.0,12.0,30.74,NNW,331,0.0,0.0,77,0.00,CLR,,0.00,0.0,WeatherDisplay:10.37,2013-11-30 05:01:00,
2013-11-30 00:03:00,18.0,12.0,30.74,NNW,331,0.0,0.0,77,0.00,CLR,,0.00,0.0,WeatherDisplay:10.37,2013-11-30 05:03:00,
2013-11-30 00:04:00,17.8,11.8,30.74,NNW,331,0.0,0.0,77,0.00,CLR,,0.00,0.0,WeatherDisplay:10.37,2013-11-30 05:04:00,
2013-11-30 00:09:00,17.8,11.8,30.74,NNW,331,0.0,0.0,77,0.00,CLR,,0.00,0.0,WeatherDisplay:10.37,2013-11-30 05:09:00,
2013-11-30 00:14:00,17.7,11.7,30.74,NNW,331,0.0,0.0,77,0.00,CLR,,0.00,0.0,WeatherDisplay:10.37,2013-11-30 05:14:00,
2013-11-30 00:19:00,17.7,11.7,30.74,NNW,331,0.0,0.0,77,0.00,CLR,,0.00,0.0,WeatherDisplay:10.37,2013-11-30 05:19:00,
2013-11-30 00:24:00,17.7,11.7,30.74,NNW,331,0.0,0.0,77,0.00,CLR,,0.00,0.0,WeatherDisplay:10.37,2013-11-30 05:24:00,
2013-11-30 00:29:00,17.5,11.5,30.73,NNW,331,0.0,0.0,77,0.00,CLR,,0.00,0.0,WeatherDisplay:10.37,2013-11-30 05:29:00,
2013-11-30 00:34:00,17.3,11.6,30.73,NNW,331,0.0,0.0,78,0.00,CLR,,0.00,0.0,WeatherDisplay:10.37,2013-11-30 05:34:00,
2013-11-30 00:39:00,17.3,11.3,30.73,NNW,331,0.0,0.0,77,0.00,CLR,,0.00,0.0,WeatherDisplay:10.37,2013-11-30 05:39:00,
2013-11-30 00:44:00,17.3,11.6,30.73,NNW,331,0.0,0.0,78,0.00,CLR,,0.00,0.0,WeatherDisplay:10.37,2013-11-30 05:44:00,
2013-11-30 00:49:00,17.2,11.5,30.73,NNW,331,0.0,0.0,78,0.00,CLR,,0.00,0.0,WeatherDisplay:10.37,2013-11-30 05:49:00,
2013-11-30 00:54:00,17.2,11.5,30.73,NNW,331,0.0,0.0,78,0.00,CLR,,0.00,0.0,WeatherDisplay:10.37,2013-11-30 05:54:00,
2013-11-30 00:59:00,17.0,11.3,30.73,NNW,331,0.0,0.0,78,0.00,CLR,,0.00,0.0,WeatherDisplay:10.37,2013-11-30 05:59:00,
2013-11-30 01:04:00,16.9,11.2,30.73,NNW,331,0.0,0.0,78,0.00,CLR,,0.00,0.0,WeatherDisplay:10.37,2013-11-30 06:04:00,
2013-11-30 01:09:00,16.9,11.2,30.74,NNW,331,0.0,0.0,78,0.00,CLR,,0.00,0.0,WeatherDisplay:10.37,2013-11-30 06:09:00,
2013-11-30 01:14:00,16.9,11.2,30.74,NNW,331,0.0,0.0,78,0.00,CLR,,0.00,0.0,WeatherDisplay:10.37,2013-11-30 06:14:00,
2013-11-30 01:19:00,17.2,11.5,30.74,NNW,331,0.0,0.0,78,0.00,CLR,,0.00,0.0,WeatherDisplay:10.37,2013-11-30 06:19:00,
2013-11-30 01:24:00,17.2,11.5,30.74,NNW,331,0.0,0.0,78,0.00,CLR,,0.00,0.0,WeatherDisplay:10.37,2013-11-30 06:24:00,
2013-11-30 01:29:00,17.2,11.5,30.74,NNW,331,0.0,0.0,78,0.00,CLR,,0.00,0.0,WeatherDisplay:10.37,2013-11-30 06:29:00,
2013-11-30 01:34:00,17.0,11.3,30.74,NNW,332,0.0,0.0,78,0.00,CLR,,0.00,0.0,WeatherDisplay:10.37,2013-11-30 06:34:00,
2013-11-30 01:39:00,16.9,11.2,30.74,NNW,331,0.0,0.0,78,0.00,CLR,,0.00,0.0,WeatherDisplay:10.37,2013-11-30 06:39:00,
2013-11-30 01:44:00,16.7,11.3,30.74,NNW,331,0.0,0.0,79,0.00,CLR,,0.00,0.0,WeatherDisplay:10.37,2013-11-30 06:44:00,
2013-11-30 01:49:00,16.7,11.3,30.74,NNW,331,0.0,0.0,79,0.00,CLR,,0.00,0.0,WeatherDisplay:10.37,2013-11-30 06:49:00,
2013-11-30 01:54:00,16.7,11.3,30.74,NNW,331,0.0,0.0,79,0.00,CLR,,0.00,0.0,WeatherDisplay:10.37,2013-11-30 06:54:00,
2013-11-30 01:59:00,16.7,11.3,30.74,NNW,331,0.0,0.0,79,0.00,CLR,,0.00,0.0,WeatherDisplay:10.37,2013-11-30 06:59:00,
2013-11-30 02:04:00,16.5,11.1,30.74,NNW,331,0.0,0.0,79,0.00,CLR,,0.00,0.0,WeatherDisplay:10.37,2013-11-30 07:04:00,
2013-11-30 02:09:00,16.4,11.0,30.74,NNW,331,0.0,0.0,79,0.00,CLR,,0.00,0.0,WeatherDisplay:10.37,2013-11-30 07:09:00,
2013-11-30 02:14:00,16.4,11.0,30.74,NNW,331,0.0,0.0,79,0.00,CLR,,0.00,0.0,WeatherDisplay:10.37,2013-11-30 07:14:00,
2013-11-30 02:19:00,16.2,10.8,30.74,NNW,331,0.0,0.0,79,0.00,CLR,,0.00,0.0,WeatherDisplay:10.37,2013-11-30 07:19:00,
2013-11-30 02:24:00,16.2,10.8,30.74,NNW,331,0.0,0.0,79,0.00,CLR,,0.00,0.0,WeatherDisplay:10.37,2013-11-30 07:24:00,
2013-11-30 02:29:00,16.4,11.0,30.74,NNW,331,0.0,0.0,79,0.00,CLR,,0.00,0.0,WeatherDisplay:10.37,2013-11-30 07:29:00,
2013-11-30 02:34:00,16.4,11.0,30.74,NNW,331,0.0,0.0,79,0.00,CLR,,0.00,0.0,WeatherDisplay:10.37,2013-11-30 07:34:00,
2013-11-30 02:39:00,16.2,10.8,30.74,NNW,331,0.0,0.0,79,0.00,CLR,,0.00,0.0,WeatherDisplay:10.37,2013-11-30 07:39:00,
2013-11-30 02:44:00,16.1,10.7,30.74,NNW,331,0.0,0.0,79,0.00,CLR,,0.00,0.0,WeatherDisplay:10.37,2013-11-30 07:44:00,
2013-11-30 02:49:00,15.9,10.5,30.74,NNW,331,0.0,0.0,79,0.00,CLR,,0.00,0.0,WeatherDisplay:10.37,2013-11-30 07:49:00,
2013-11-30 02:54:00,15.9,10.5,30.74,NNW,331,0.0,0.0,79,0.00,CLR,,0.00,0.0,WeatherDisplay:10.37,2013-11-30 07:54:00,
2013-11-30 02:59:00,15.7,10.3,30.74,NNW,331,0.0,0.0,79,0.00,CLR,,0.00,0.0,WeatherDisplay:10.37,2013-11-30 07:59:00,
2013-11-30 03:04:00,15.7,10.6,30.74,NNW,331,0.0,0.0,80,0.00,CLR,,0.00,0.0,WeatherDisplay:10.37,2013-11-30 08:04:00,
2013-11-30 03:09:00,15.7,10.6,30.74,NNW,331,0.0,0.0,80,0.00,CLR,,0.00,0.0,WeatherDisplay:10.37,2013-11-30 08:09:00,
2013-11-30 03:14:00,15.6,10.5,30.74,NNW,331,0.0,0.0,80,0.00,CLR,,0.00,0.0,WeatherDisplay:10.37,2013-11-30 08:14:00,
2013-11-30 03:19:00,15.6,10.5,30.74,NNW,331,0.0,0.0,80,0.00,CLR,,0.00,0.0,WeatherDisplay:10.37,2013-11-30 08:19:00,
2013-11-30 03:24:00,15.7,10.6,30.74,NNW,331,0.0,0.0,80,0.00,CLR,,0.00,0.0,WeatherDisplay:10.37,2013-11-30 08:24:00,
2013-11-30 03:29:00,15.9,10.8,30.74,NNW,331,0.0,0.0,80,0.00,CLR,,0.00,0.0,WeatherDisplay:10.37,2013-11-30 08:29:00,
2013-11-30 03:34:00,15.9,10.8,30.74,NNW,331,0.0,0.0,80,0.00,CLR,,0.00,0.0,WeatherDisplay:10.37,2013-11-30 08:34:00,
2013-11-30 03:39:00,15.9,10.8,30.74,NNW,331,0.0,0.0,80,0.00,CLR,,0.00,0.0,WeatherDisplay:10.37,2013-11-30 08:39:00,
2013-11-30 03:44:00,15.9,10.8,30.73,NNW,331,0.0,0.0,80,0.00,CLR,,0.00,0.0,WeatherDisplay:10.37,2013-11-30 08:44:00,
2013-11-30 03:49:00,15.6,10.5,30.73,NNW,331,0.0,0.0,80,0.00,CLR,,0.00,0.0,WeatherDisplay:10.37,2013-11-30 08:49:00,
2013-11-30 03:54:00,15.4,10.3,30.73,NNW,331,0.0,0.0,80,0.00,CLR,,0.00,0.0,WeatherDisplay:10.37,2013-11-30 08:54:00,
2013-11-30 03:59:00,15.6,10.5,30.73,NNW,331,0.0,0.0,80,0.00,CLR,,0.00,0.0,WeatherDisplay:10.37,2013-11-30 08:59:00,
2013-11-30 04:04:00,15.4,10.3,30.73,NNW,331,0.0,0.0,80,0.00,CLR,,0.00,0.0,WeatherDisplay:10.37,2013-11-30 09:04:00,
2013-11-30 04:09:00,15.2,10.1,30.73,NNW,331,0.0,0.0,80,0.00,CLR,,0.00,0.0,WeatherDisplay:10.37,2013-11-30 09:09:00,
2013-11-30 04:14:00,15.2,10.1,30.73,NNW,331,0.0,0.0,80,0.00,CLR,,0.00,0.0,WeatherDisplay:10.37,2013-11-30 09:14:00,
2013-11-30 04:19:00,15.2,10.1,30.73,NNW,331,0.0,0.0,80,0.00,CLR,,0.00,0.0,WeatherDisplay:10.37,2013-11-30 09:19:00,
2013-11-30 04:24:00,15.1,10.0,30.73,NNW,331,0.0,0.0,80,0.00,CLR,,0.00,0.0,WeatherDisplay:10.37,2013-11-30 09:24:00,
2013-11-30 04:29:00,14.9,9.8,30.73,NNW,331,0.0,0.0,80,0.00,CLR,,0.00,0.0,WeatherDisplay:10.37,2013-11-30 09:29:00,
2013-11-30 04:34:00,14.9,9.8,30.73,NNW,331,0.0,0.0,80,0.00,CLR,,0.00,0.0,WeatherDisplay:10.37,2013-11-30 09:34:00,
2013-11-30 04:39:00,14.8,9.7,30.73,NNW,331,0.0,0.0,80,0.00,CLR,,0.00,0.0,WeatherDisplay:10.37,2013-11-30 09:39:00,
2013-11-30 04:44:00,14.8,9.7,30.73,NNW,331,0.0,0.0,80,0.00,CLR,,0.00,0.0,WeatherDisplay:10.37,2013-11-30 09:44:00,
2013-11-30 04:49:00,14.6,9.6,30.73,NNW,331,0.0,0.0,80,0.00,CLR,,0.00,0.0,WeatherDisplay:10.37,2013-11-30 09:49:00,
2013-11-30 04:54:00,14.6,9.6,30.73,NNW,331,0.0,0.0,80,0.00,CLR,,0.00,0.0,WeatherDisplay:10.37,2013-11-30 09:54:00,
2013-11-30 04:59:00,14.4,9.4,30.73,NNW,331,0.0,0.0,80,0.00,CLR,,0.00,0.0,WeatherDisplay:10.37,2013-11-30 09:59:00,
2013-11-30 05:04:00,14.3,9.3,30.73,NNW,331,0.0,0.0,80,0.00,CLR,,0.00,0.0,WeatherDisplay:10.37,2013-11-30 10:04:00,
2013-11-30 05:09:00,14.3,9.3,30.73,NNW,331,0.0,0.0,80,0.00,CLR,,0.00,0.0,WeatherDisplay:10.37,2013-11-30 10:09:00,
2013-11-30 05:14:00,14.3,9.3,30.73,NNW,331,0.0,0.0,80,0.00,CLR,,0.00,0.0,WeatherDisplay:10.37,2013-11-30 10:14:00,
2013-11-30 05:19:00,14.3,9.3,30.73,NNW,331,0.0,0.0,80,0.00,CLR,,0.00,0.0,WeatherDisplay:10.37,2013-11-30 10:19:00,
2013-11-30 05:24:00,14.3,9.3,30.73,NNW,331,0.0,0.0,80,0.00,CLR,,0.00,0.0,WeatherDisplay:10.37,2013-11-30 10:24:00,
2013-11-30 05:29:00,14.3,9.3,30.73,NNW,331,0.0,0.0,80,0.00,CLR,,0.00,0.0,WeatherDisplay:10.37,2013-11-30 10:29:00,
2013-11-30 05:34:00,14.4,9.4,30.73,NNW,331,0.0,0.0,80,0.00,CLR,,0.00,0.0,WeatherDisplay:10.37,2013-11-30 10:34:00,
2013-11-30 05:39:00,14.4,9.4,30.73,NNW,331,0.0,0.0,80,0.00,CLR,,0.00,0.0,WeatherDisplay:10.37,2013-11-30 10:39:00,
2013-11-30 05:44:00,14.6,9.8,30.73,NNW,331,0.0,0.0,81,0.00,CLR,,0.00,0.0,WeatherDisplay:10.37,2013-11-30 10:44:00,
2013-11-30 05:49:00,14.8,10.0,30.73,NNW,331,0.0,0.0,81,0.00,CLR,,0.00,0.0,WeatherDisplay:10.37,2013-11-30 10:49:00,
2013-11-30 05:54:00,14.9,10.1,30.74,NNW,331,0.0,0.0,81,0.00,CLR,,0.00,0.0,WeatherDisplay:10.37,2013-11-30 10:54:00,
2013-11-30 05:59:00,14.9,10.1,30.74,NNW,331,0.0,0.0,81,0.00,CLR,,0.00,0.0,WeatherDisplay:10.37,2013-11-30 10:59:00,
2013-11-30 06:04:00,15.2,10.4,30.74,NNW,331,0.0,0.0,81,0.00,CLR,,0.00,0.0,WeatherDisplay:10.37,2013-11-30 11:04:00,
2013-11-30 06:09:00,15.2,10.4,30.74,NNW,331,0.0,0.0,81,0.00,CLR,,0.00,0.0,WeatherDisplay:10.37,2013-11-30 11:09:00,
2013-11-30 06:14:00,15.1,10.3,30.74,NNW,331,0.0,0.0,81,0.00,CLR,,0.00,0.0,WeatherDisplay:10.37,2013-11-30 11:14:00,
2013-11-30 06:19:00,15.1,10.3,30.74,NNW,331,0.0,0.0,81,0.00,CLR,,0.00,0.0,WeatherDisplay:10.37,2013-11-30 11:19:00,
2013-11-30 06:24:00,14.9,10.1,30.74,NNW,331,0.0,0.0,81,0.00,CLR,,0.00,0.0,WeatherDisplay:10.37,2013-11-30 11:24:00,
2013-11-30 06:29:00,14.8,10.0,30.74,NNW,331,0.0,0.0,81,0.00,CLR,,0.00,0.0,WeatherDisplay:10.37,2013-11-30 11:29:00,
2013-11-30 06:34:00,14.9,10.1,30.74,NNW,331,0.0,0.0,81,0.00,CLR,,0.00,0.0,WeatherDisplay:10.37,2013-11-30 11:34:00,
2013-11-30 06:39:00,14.9,10.1,30.74,NNW,331,0.0,0.0,81,0.00,CLR,,0.00,0.0,WeatherDisplay:10.37,2013-11-30 11:39:00,
2013-11-30 06:44:00,15.1,10.3,30.74,NNW,331,0.0,0.0,81,0.00,CLR,,0.00,0.0,WeatherDisplay:10.37,2013-11-30 11:44:00,
2013-11-30 06:49:00,15.1,10.3,30.74,NNW,331,0.0,0.0,81,0.00,CLR,,0.00,0.0,WeatherDisplay:10.37,2013-11-30 11:49:00,
2013-11-30 06:54:00,15.1,10.3,30.74,NNW,332,0.0,0.0,81,0.00,CLR,,0.00,0.0,WeatherDisplay:10.37,2013-11-30 11:54:00,
2013-11-30 06:59:00,15.1,10.3,30.74,NNW,331,0.0,0.0,81,0.00,CLR,,0.00,0.0,WeatherDisplay:10.37,2013-11-30 11:59:00,
2013-11-30 07:04:00,14.9,10.1,30.74,NNW,331,0.0,0.0,81,0.00,CLR,,0.00,0.0,WeatherDisplay:10.37,2013-11-30 12:04:00,
2013-11-30 07:09:00,14.9,10.1,30.74,NNW,331,0.0,0.0,81,0.00,CLR,,0.00,5.0,WeatherDisplay:10.37,2013-11-30 12:09:00,
2013-11-30 07:14:00,14.8,10.0,30.74,NNW,331,0.0,0.0,81,0.00,SCT,,0.00,9.0,WeatherDisplay:10.37,2013-11-30 12:14:00,
2013-11-30 07:19:00,14.8,10.0,30.74,NNW,331,0.0,0.0,81,0.00,SCT,,0.00,14.0,WeatherDisplay:10.37,2013-11-30 12:19:00,
2013-11-30 07:24:00,14.9,10.1,30.74,NNW,331,0.0,0.0,81,0.00,SCT,,0.00,21.0,WeatherDisplay:10.37,2013-11-30 12:24:00,
2013-11-30 07:29:00,15.1,10.3,30.74,NNW,331,0.0,0.0,81,0.00,SCT,,0.00,28.0,WeatherDisplay:10.37,2013-11-30 12:29:00,
2013-11-30 07:34:00,15.4,10.6,30.74,NNW,332,0.0,0.0,81,0.00,SCT,,0.00,33.0,WeatherDisplay:10.37,2013-11-30 12:34:00,
2013-11-30 07:39:00,15.6,10.8,30.74,NNW,331,0.0,0.0,81,0.00,SCT,,0.00,35.0,WeatherDisplay:10.37,2013-11-30 12:39:00,
2013-11-30 07:44:00,15.9,11.1,30.74,NNW,331,0.0,0.0,81,0.00,SCT,,0.00,39.0,WeatherDisplay:10.37,2013-11-30 12:44:00,
2013-11-30 07:49:00,16.4,11.6,30.74,NNW,331,0.0,0.0,81,0.00,SCT,,0.00,46.0,WeatherDisplay:10.37,2013-11-30 12:49:00,
2013-11-30 07:54:00,16.7,12.2,30.73,NNW,331,0.0,0.0,82,0.00,SCT,,0.00,49.0,WeatherDisplay:10.37,2013-11-30 12:54:00,
2013-11-30 07:59:00,17.3,12.7,30.74,NNW,331,0.0,0.0,82,0.00,SCT,,0.00,54.0,WeatherDisplay:10.37,2013-11-30 12:59:00,
2013-11-30 08:04:00,18.1,13.5,30.74,NNW,331,0.0,0.0,82,0.00,SCT,,0.00,56.0,WeatherDisplay:10.37,2013-11-30 13:04:00,
2013-11-30 08:09:00,18.9,14.6,30.74,NNW,331,0.0,0.0,83,0.00,SCT,,0.00,54.0,WeatherDisplay:10.37,2013-11-30 13:09:00,
2013-11-30 08:14:00,19.4,15.1,30.74,NNW,331,0.0,0.0,83,0.00,BKN,,0.00,62.0,WeatherDisplay:10.37,2013-11-30 13:14:00,
2013-11-30 08:19:00,20.0,15.7,30.74,NNW,331,0.0,0.0,83,0.00,BKN,,0.00,69.0,WeatherDisplay:10.37,2013-11-30 13:19:00,
2013-11-30 08:24:00,20.5,16.2,30.74,NNW,331,0.0,0.0,83,0.00,BKN,,0.00,77.0,WeatherDisplay:10.37,2013-11-30 13:24:00,
2013-11-30 08:29:00,21.1,16.7,30.74,NNW,331,0.0,0.0,83,0.00,BKN,,0.00,86.0,WeatherDisplay:10.37,2013-11-30 13:29:00,
2013-11-30 08:34:00,21.8,17.4,30.74,NNW,332,0.1,1.5,83,0.00,BKN,,0.00,97.0,WeatherDisplay:10.37,2013-11-30 13:34:00,
2013-11-30 08:39:00,23.2,18.8,30.73,ENE,78,1.7,3.5,83,0.00,BKN,,0.00,109.0,WeatherDisplay:10.37,2013-11-30 13:39:00,
2013-11-30 08:44:00,24.2,19.8,30.73,East,85,3.4,4.6,83,0.00,BKN,,0.00,114.0,WeatherDisplay:10.37,2013-11-30 13:44:00,
2013-11-30 08:49:00,25.1,19.8,30.73,East,86,1.0,4.6,80,0.00,BKN,,0.00,139.0,WeatherDisplay:10.37,2013-11-30 13:49:00,
2013-11-30 08:54:00,25.8,19.6,30.73,East,86,2.5,4.5,77,0.00,BKN,,0.00,139.0,WeatherDisplay:10.37,2013-11-30 13:54:00,
2013-11-30 08:59:00,26.4,19.2,30.73,East,89,1.1,4.5,74,0.00,BKN,,0.00,139.0,WeatherDisplay:10.37,2013-11-30 13:59:00,
2013-11-30 09:04:00,27.0,18.5,30.73,East,90,3.4,6.0,70,0.00,BKN,,0.00,183.0,WeatherDisplay:10.37,2013-11-30 14:04:00,
2013-11-30 09:09:00,27.5,18.0,30.73,East,90,3.2,4.6,67,0.00,BKN,,0.00,209.0,WeatherDisplay:10.37,2013-11-30 14:09:00,
2013-11-30 09:14:00,27.9,16.9,30.73,East,94,2.7,6.0,63,0.00,BKN,,0.00,237.0,WeatherDisplay:10.37,2013-11-30 14:14:00,
2013-11-30 09:19:00,28.2,16.8,30.73,East,92,1.7,4.5,62,0.00,BKN,,0.00,185.0,WeatherDisplay:10.37,2013-11-30 14:19:00,
2013-11-30 09:24:00,28.4,16.7,30.73,ESE,103,0.6,4.5,61,0.00,BKN,,0.00,181.0,WeatherDisplay:10.37,2013-11-30 14:24:00,
2013-11-30 09:29:00,28.4,15.9,30.73,ESE,103,1.0,4.6,59,0.00,BKN,,0.00,163.0,WeatherDisplay:10.37,2013-11-30 14:29:00,
2013-11-30 09:34:00,28.5,16.0,30.73,ESE,103,0.3,1.2,59,0.00,BKN,,0.00,155.0,WeatherDisplay:10.37,2013-11-30 14:34:00,
2013-11-30 09:39:00,28.4,15.5,30.72,ESE,103,2.9,6.0,58,0.00,BKN,,0.00,172.0,WeatherDisplay:10.37,2013-11-30 14:39:00,
2013-11-30 09:44:00,28.4,15.1,30.72,ESE,103,3.1,4.6,57,0.00,BKN,,0.00,192.0,WeatherDisplay:10.37,2013-11-30 14:44:00,
2013-11-30 09:49:00,28.5,15.2,30.72,ESE,104,2.7,4.6,57,0.00,BKN,,0.00,197.0,WeatherDisplay:10.37,2013-11-30 14:49:00,
2013-11-30 09:54:00,28.7,15.4,30.72,SE,127,1.1,4.6,57,0.00,BKN,,0.00,211.0,WeatherDisplay:10.37,2013-11-30 14:54:00,
2013-11-30 09:59:00,28.8,15.5,30.72,East,96,0.4,1.5,57,0.00,BKN,,0.00,200.0,WeatherDisplay:10.37,2013-11-30 14:59:00,
2013-11-30 10:04:00,29.0,15.7,30.72,ESE,111,0.7,3.5,57,0.00,OVC,,0.00,220.0,WeatherDisplay:10.37,2013-11-30 15:04:00,
2013-11-30 10:09:00,29.1,15.7,30.72,ESE,111,0.9,8.1,57,0.00,OVC,,0.00,250.0,WeatherDisplay:10.37,2013-11-30 15:09:00,
2013-11-30 10:14:00,29.4,16.0,30.71,ESE,112,1.5,4.5,57,0.00,OVC,,0.00,237.0,WeatherDisplay:10.37,2013-11-30 15:14:00,
2013-11-30 10:19:00,29.5,15.7,30.71,ESE,123,4.7,9.0,56,0.00,OVC,,0.00,260.0,WeatherDisplay:10.37,2013-11-30 15:19:00,
2013-11-30 10:24:00,29.5,15.7,30.71,ESE,119,2.8,4.6,56,0.00,OVC,,0.00,271.0,WeatherDisplay:10.37,2013-11-30 15:24:00,
2013-11-30 10:29:00,30.0,16.2,30.71,SE,126,3.7,4.6,56,0.00,OVC,,0.00,302.0,WeatherDisplay:10.37,2013-11-30 15:29:00,
2013-11-30 10:34:00,30.3,15.6,30.70,SSE,165,6.4,8.1,54,0.00,OVC,,0.00,308.0,WeatherDisplay:10.37,2013-11-30 15:34:00,
2013-11-30 10:39:00,30.7,16.4,30.70,ESE,119,1.6,6.0,55,0.00,OVC,,0.00,308.0,WeatherDisplay:10.37,2013-11-30 15:39:00,
2013-11-30 10:44:00,31.0,16.3,30.70,SSE,161,0.8,8.1,54,0.00,OVC,,0.00,320.0,WeatherDisplay:10.37,2013-11-30 15:44:00,
2013-11-30 10:49:00,31.2,16.5,30.70,SSE,158,0.7,5.8,54,0.00,OVC,,0.00,373.0,WeatherDisplay:10.37,2013-11-30 15:49:00,
2013-11-30 10:54:00,31.8,16.6,30.69,South,172,4.7,10.5,53,0.00,OVC,,0.00,311.0,WeatherDisplay:10.37,2013-11-30 15:54:00,
2013-11-30 10:59:00,32.1,16.4,30.69,SSE,149,2.3,4.6,52,0.00,OVC,,0.00,371.0,WeatherDisplay:10.37,2013-11-30 15:59:00,
2013-11-30 11:04:00,32.5,16.8,30.69,ESE,123,2.4,4.6,52,0.00,OVC,,0.00,429.0,WeatherDisplay:10.37,2013-11-30 16:04:00,
2013-11-30 11:09:00,32.9,16.7,30.68,SSE,147,8.4,9.2,51,0.00,OVC,,0.00,462.0,WeatherDisplay:10.37,2013-11-30 16:09:00,
2013-11-30 11:14:00,33.1,16.0,30.68,SSE,157,8.6,16.5,49,0.00,OVC,,0.00,376.0,WeatherDisplay:10.37,2013-11-30 16:14:00,
2013-11-30 11:19:00,33.4,16.7,30.67,SSE,155,0.1,3.0,50,0.00,OVC,,0.00,439.0,WeatherDisplay:10.37,2013-11-30 16:19:00,
2013-11-30 11:24:00,33.7,16.1,30.67,ESE,121,1.4,5.8,48,0.00,OVC,,0.00,432.0,WeatherDisplay:10.37,2013-11-30 16:24:00,
2013-11-30 11:29:00,34.0,15.9,30.67,WSW,257,4.0,13.8,47,0.00,OVC,,0.00,425.0,WeatherDisplay:10.37,2013-11-30 16:29:00,
2013-11-30 11:34:00,33.5,14.4,30.67,SW,232,8.9,10.4,45,0.00,OVC,,0.00,420.0,WeatherDisplay:10.37,2013-11-30 16:34:00,
2013-11-30 11:39:00,33.7,15.6,30.66,SE,142,7.9,10.4,47,0.00,OVC,,0.00,489.0,WeatherDisplay:10.37,2013-11-30 16:39:00,
2013-11-30 11:44:00,34.0,14.9,30.66,SSE,151,9.2,10.4,45,0.00,OVC,,0.00,387.0,WeatherDisplay:10.37,2013-11-30 16:44:00,
2013-11-30 11:49:00,33.7,14.6,30.65,SE,136,6.6,9.0,45,0.00,OVC,,0.00,369.0,WeatherDisplay:10.37,2013-11-30 16:49:00,
2013-11-30 11:54:00,34.0,15.4,30.65,SSE,150,5.7,6.0,46,0.00,OVC,,0.00,244.0,WeatherDisplay:10.37,2013-11-30 16:54:00,
2013-11-30 11:59:00,33.7,14.6,30.65,SE,146,1.8,5.8,45,0.00,OVC,,0.00,381.0,WeatherDisplay:10.37,2013-11-30 16:59:00,
2013-11-30 12:04:00,34.1,15.5,30.65,SSE,162,3.8,8.1,46,0.00,OVC,,0.00,320.0,WeatherDisplay:10.37,2013-11-30 17:04:00,
2013-11-30 12:09:00,34.3,15.1,30.64,SSE,160,0.8,3.5,45,0.00,OVC,,0.00,336.0,WeatherDisplay:10.37,2013-11-30 17:09:00,
2013-11-30 12:14:00,34.1,14.4,30.64,SE,141,2.5,4.6,44,0.00,OVC,,0.00,267.0,WeatherDisplay:10.37,2013-11-30 17:14:00,
2013-11-30 12:19:00,34.0,14.9,30.64,SE,146,0.5,3.5,45,0.00,OVC,,0.00,213.0,WeatherDisplay:10.37,2013-11-30 17:19:00,
2013-11-30 12:24:00,33.8,14.7,30.64,SW,218,4.7,7.5,45,0.00,OVC,,0.00,195.0,WeatherDisplay:10.37,2013-11-30 17:24:00,
2013-11-30 12:29:00,33.8,15.2,30.63,WSW,238,4.9,9.0,46,0.00,OVC,,0.00,248.0,WeatherDisplay:10.37,2013-11-30 17:29:00,
2013-11-30 12:34:00,33.8,15.2,30.63,SW,236,2.7,5.8,46,0.00,OVC,,0.00,255.0,WeatherDisplay:10.37,2013-11-30 17:34:00,
2013-11-30 12:39:00,34.0,15.9,30.63,SSE,154,1.9,6.0,47,0.00,OVC,,0.00,253.0,WeatherDisplay:10.37,2013-11-30 17:39:00,
2013-11-30 12:44:00,34.0,15.9,30.62,SW,233,7.5,9.2,47,0.00,OVC,,0.00,262.0,WeatherDisplay:10.37,2013-11-30 17:44:00,
2013-11-30 12:49:00,34.1,15.5,30.62,SSW,211,6.1,7.5,46,0.00,OVC,,0.00,253.0,WeatherDisplay:10.37,2013-11-30 17:49:00,
2013-11-30 12:54:00,34.3,16.1,30.62,SE,133,3.5,9.0,47,0.00,CLR,,0.00,244.0,WeatherDisplay:10.37,2013-11-30 17:54:00,
2013-11-30 13:00:00,34.4,16.2,30.62,SSE,164,6.0,8.1,47,0.00,CLR,,0.00,237.0,WeatherDisplay:10.37,2013-11-30 18:00:00,
2013-11-30 13:05:00,34.1,14.9,30.62,SSE,150,7.5,9.2,45,0.00,CLR,,0.00,236.0,WeatherDisplay:10.37,2013-11-30 18:05:00,
2013-11-30 13:10:00,34.1,15.5,30.62,SW,217,10.7,15.0,46,0.00,CLR,,0.00,237.0,WeatherDisplay:10.37,2013-11-30 18:10:00,
2013-11-30 13:15:00,33.8,15.2,30.61,SSE,153,10.0,10.5,46,0.00,OVC,,0.00,223.0,WeatherDisplay:10.37,2013-11-30 18:15:00,
2013-11-30 13:20:00,34.0,15.9,30.60,SE,144,1.3,4.6,47,0.00,OVC,,0.00,223.0,WeatherDisplay:10.37,2013-11-30 18:20:00,
2013-11-30 13:25:00,34.4,15.2,30.60,SSE,159,6.3,9.2,45,0.00,OVC,,0.00,218.0,WeatherDisplay:10.37,2013-11-30 18:25:00,
2013-11-30 13:30:00,34.4,15.2,30.60,SSE,156,7.1,8.1,45,0.00,OVC,,0.00,221.0,WeatherDisplay:10.37,2013-11-30 18:30:00,
2013-11-30 13:35:00,34.6,15.4,30.60,SSE,156,3.7,9.2,45,0.00,OVC,,0.00,221.0,WeatherDisplay:10.37,2013-11-30 18:35:00,
2013-11-30 13:40:00,34.6,14.9,30.59,SSE,150,1.0,3.5,44,0.00,OVC,,0.00,207.0,WeatherDisplay:10.37,2013-11-30 18:40:00,
2013-11-30 13:45:00,34.7,15.5,30.59,SSE,155,3.6,5.8,45,0.00,OVC,,0.00,200.0,WeatherDisplay:10.37,2013-11-30 18:45:00,
2013-11-30 13:50:00,34.7,15.0,30.59,SSE,156,5.0,10.5,44,0.00,OVC,,0.00,192.0,WeatherDisplay:10.37,2013-11-30 18:50:00,
2013-11-30 13:55:00,34.7,15.0,30.58,ESE,118,0.0,5.8,44,0.00,OVC,,0.00,183.0,WeatherDisplay:10.37,2013-11-30 18:55:00,
2013-11-30 14:00:00,34.9,15.2,30.58,SE,128,5.0,6.0,44,0.00,OVC,,0.00,172.0,WeatherDisplay:10.37,2013-11-30 19:00:00,
2013-11-30 14:05:00,34.7,14.5,30.58,SE,129,2.6,6.0,43,0.00,OVC,,0.00,160.0,WeatherDisplay:10.37,2013-11-30 19:05:00,
2013-11-30 14:10:00,34.6,14.4,30.58,SSE,152,9.8,13.8,43,0.00,OVC,,0.00,151.0,WeatherDisplay:10.37,2013-11-30 19:10:00,
2013-11-30 14:15:00,34.4,14.7,30.57,SSE,151,4.3,6.0,44,0.00,OVC,,0.00,146.0,WeatherDisplay:10.37,2013-11-30 19:15:00,
2013-11-30 14:20:00,34.4,14.7,30.57,SSE,152,1.4,3.5,44,0.00,OVC,,0.00,139.0,WeatherDisplay:10.37,2013-11-30 19:20:00,
2013-11-30 14:25:00,34.6,14.9,30.56,SSE,162,3.8,7.5,44,0.00,OVC,,0.00,135.0,WeatherDisplay:10.37,2013-11-30 19:25:00,
2013-11-30 14:30:00,34.4,14.2,30.56,South,170,5.4,8.1,43,0.00,OVC,,0.00,132.0,WeatherDisplay:10.37,2013-11-30 19:30:00,
2013-11-30 14:35:00,34.4,14.7,30.56,SSE,151,5.1,9.0,44,0.00,OVC,,0.00,128.0,WeatherDisplay:10.37,2013-11-30 19:35:00,
2013-11-30 14:40:00,34.3,14.6,30.56,SE,146,2.6,5.8,44,0.00,OVC,,0.00,123.0,WeatherDisplay:10.37,2013-11-30 19:40:00,
2013-11-30 14:45:00,34.4,15.2,30.55,SSE,159,3.6,9.0,45,0.00,OVC,,0.00,116.0,WeatherDisplay:10.37,2013-11-30 19:45:00,
2013-11-30 14:50:00,34.4,14.7,30.55,SE,146,3.2,9.0,44,0.00,OVC,,0.00,109.0,WeatherDisplay:10.37,2013-11-30 19:50:00,
2013-11-30 14:55:00,34.3,14.6,30.55,SSE,155,9.8,10.4,44,0.00,OVC,,0.00,102.0,WeatherDisplay:10.37,2013-11-30 19:55:00,
2013-11-30 15:00:00,34.3,14.6,30.54,SSE,150,6.8,15.0,44,0.00,OVC,,0.00,95.0,WeatherDisplay:10.37,2013-11-30 20:00:00,
2013-11-30 15:05:00,34.3,14.6,30.54,SSE,148,7.6,10.5,44,0.00,OVC,,0.00,91.0,WeatherDisplay:10.37,2013-11-30 20:05:00,
2013-11-30 15:10:00,34.3,15.1,30.54,SSE,156,3.4,8.1,45,0.00,OVC,,0.00,88.0,WeatherDisplay:10.37,2013-11-30 20:10:00,
2013-11-30 15:15:00,34.3,15.1,30.53,SSE,157,6.4,9.2,45,0.00,OVC,,0.00,86.0,WeatherDisplay:10.37,2013-11-30 20:15:00,
2013-11-30 15:20:00,34.1,14.9,30.53,SSE,149,5.1,13.5,45,0.00,OVC,,0.00,77.0,WeatherDisplay:10.37,2013-11-30 20:20:00,
2013-11-30 15:25:00,34.1,14.9,30.53,SSE,150,5.8,9.2,45,0.00,OVC,,0.00,70.0,WeatherDisplay:10.37,2013-11-30 20:25:00,
2013-11-30 15:30:00,34.1,14.4,30.53,ESE,115,0.7,4.5,44,0.00,OVC,,0.00,67.0,WeatherDisplay:10.37,2013-11-30 20:30:00,
2013-11-30 15:35:00,34.1,14.9,30.53,ESE,117,0.0,0.0,45,0.00,OVC,,0.00,65.0,WeatherDisplay:10.37,2013-11-30 20:35:00,
2013-11-30 15:40:00,34.1,14.9,30.53,SSE,158,0.4,3.5,45,0.00,OVC,,0.00,62.0,WeatherDisplay:10.37,2013-11-30 20:40:00,
2013-11-30 15:45:00,34.1,14.9,30.53,SSE,156,1.3,3.5,45,0.00,OVC,,0.00,56.0,WeatherDisplay:10.37,2013-11-30 20:45:00,
2013-11-30 15:50:00,34.0,14.3,30.53,SE,128,1.7,5.8,44,0.00,OVC,,0.00,49.0,WeatherDisplay:10.37,2013-11-30 20:50:00,
2013-11-30 15:55:00,34.0,14.9,30.53,SSE,161,3.2,6.0,45,0.00,OVC,,0.00,40.0,WeatherDisplay:10.37,2013-11-30 20:55:00,
2013-11-30 16:00:00,33.8,14.7,30.53,SSE,160,0.8,3.0,45,0.00,OVC,,0.00,33.0,WeatherDisplay:10.37,2013-11-30 21:00:00,
2013-11-30 16:05:00,33.8,14.7,30.53,SSE,158,3.8,6.0,45,0.00,OVC,,0.00,26.0,WeatherDisplay:10.37,2013-11-30 21:05:00,
2013-11-30 16:10:00,33.8,15.2,30.53,SSE,158,0.1,1.2,46,0.00,OVC,,0.00,21.0,WeatherDisplay:10.37,2013-11-30 21:10:00,
2013-11-30 16:15:00,33.7,14.6,30.52,SSE,153,2.3,7.5,45,0.00,OVC,,0.00,18.0,WeatherDisplay:10.37,2013-11-30 21:15:00,
2013-11-30 16:20:00,33.8,14.7,30.52,SSE,153,0.6,5.8,45,0.00,OVC,,0.00,19.0,WeatherDisplay:10.37,2013-11-30 21:20:00,
2013-11-30 16:25:00,33.7,15.1,30.52,SSE,153,0.1,1.2,46,0.00,OVC,,0.00,18.0,WeatherDisplay:10.37,2013-11-30 21:25:00,
2013-11-30 16:30:00,33.7,15.1,30.52,SSE,153,0.0,1.2,46,0.00,OVC,,0.00,14.0,WeatherDisplay:10.37,2013-11-30 21:30:00,
2013-11-30 16:35:00,33.7,15.1,30.51,SSE,153,0.0,3.5,46,0.00,OVC,,0.00,9.0,WeatherDisplay:10.37,2013-11-30 21:35:00,
2013-11-30 16:40:00,33.5,14.9,30.51,South,172,0.6,3.5,46,0.00,OVC,,0.00,7.0,WeatherDisplay:10.37,2013-11-30 21:40:00,
2013-11-30 16:45:00,33.5,14.9,30.51,SE,135,2.7,9.2,46,0.00,OVC,,0.00,5.0,WeatherDisplay:10.37,2013-11-30 21:45:00,
2013-11-30 16:50:00,33.5,15.4,30.50,SE,135,0.0,5.8,47,0.00,OVC,,0.00,5.0,WeatherDisplay:10.37,2013-11-30 21:50:00,
2013-11-30 16:55:00,33.4,15.3,30.50,SE,142,0.1,1.2,47,0.00,OVC,,0.00,0.0,WeatherDisplay:10.37,2013-11-30 21:55:00,
2013-11-30 17:00:00,33.4,15.3,30.50,SE,146,0.2,1.5,47,0.00,OVC,,0.00,0.0,WeatherDisplay:10.37,2013-11-30 22:00:00,
2013-11-30 17:05:00,33.4,15.3,30.50,SE,144,1.0,5.8,47,0.00,OVC,,0.00,0.0,WeatherDisplay:10.37,2013-11-30 22:05:00,
2013-11-30 17:10:00,33.4,15.3,30.50,SSE,147,0.0,5.8,47,0.00,OVC,,0.00,0.0,WeatherDisplay:10.37,2013-11-30 22:10:00,
2013-11-30 17:15:00,33.4,15.8,30.50,SSE,147,0.3,1.5,48,0.00,OVC,,0.00,0.0,WeatherDisplay:10.37,2013-11-30 22:15:00,
2013-11-30 17:20:00,33.2,15.6,30.50,SSE,147,0.0,1.2,48,0.00,OVC,,0.00,0.0,WeatherDisplay:10.37,2013-11-30 22:20:00,
2013-11-30 17:25:00,33.4,15.8,30.50,SSE,161,8.3,13.8,48,0.00,OVC,,0.00,0.0,WeatherDisplay:10.37,2013-11-30 22:25:00,
2013-11-30 17:30:00,33.5,15.9,30.50,SE,144,4.0,7.5,48,0.00,OVC,,0.00,0.0,WeatherDisplay:10.37,2013-11-30 22:30:00,
2013-11-30 17:35:00,33.4,15.8,30.50,SE,143,0.2,3.0,48,0.00,OVC,,0.00,0.0,WeatherDisplay:10.37,2013-11-30 22:35:00,
2013-11-30 17:40:00,33.4,15.8,30.50,SSE,148,5.4,9.2,48,0.00,OVC,,0.00,0.0,WeatherDisplay:10.37,2013-11-30 22:40:00,
2013-11-30 17:45:00,33.2,15.6,30.50,SSE,148,5.8,6.0,48,0.00,OVC,,0.00,0.0,WeatherDisplay:10.37,2013-11-30 22:45:00,
2013-11-30 17:50:00,33.2,15.6,30.50,SSE,148,2.0,5.8,48,0.00,OVC,,0.00,0.0,WeatherDisplay:10.37,2013-11-30 22:50:00,
2013-11-30 17:55:00,33.1,16.0,30.50,SSE,157,5.0,9.2,49,0.00,OVC,,0.00,0.0,WeatherDisplay:10.37,2013-11-30 22:55:00,
2013-11-30 18:00:00,32.9,15.8,30.50,SSE,157,2.2,5.8,49,0.00,OVC,,0.00,0.0,WeatherDisplay:10.37,2013-11-30 23:00:00,
2013-11-30 18:05:00,32.7,16.1,30.49,SSE,157,2.4,5.8,50,0.00,OVC,,0.00,0.0,WeatherDisplay:10.37,2013-11-30 23:05:00,
2013-11-30 18:10:00,32.5,15.9,30.49,SSE,157,0.7,4.6,50,0.00,OVC,,0.00,0.0,WeatherDisplay:10.37,2013-11-30 23:10:00,
2013-11-30 18:15:00,32.4,16.3,30.49,SSE,157,0.1,1.2,51,0.00,OVC,,0.00,0.0,WeatherDisplay:10.37,2013-11-30 23:15:00,
2013-11-30 18:20:00,32.2,16.1,30.49,SSE,157,0.4,4.6,51,0.00,OVC,,0.00,0.0,WeatherDisplay:10.37,2013-11-30 23:20:00,
2013-11-30 18:25:00,32.4,16.3,30.49,South,182,0.0,0.0,51,0.00,OVC,,0.00,0.0,WeatherDisplay:10.37,2013-11-30 23:25:00,
2013-11-30 18:30:00,32.2,16.1,30.48,South,181,1.6,4.5,51,0.00,OVC,,0.00,0.0,WeatherDisplay:10.37,2013-11-30 23:30:00,
2013-11-30 18:35:00,32.1,16.4,30.48,South,181,0.2,1.5,52,0.00,OVC,,0.00,0.0,WeatherDisplay:10.37,2013-11-30 23:35:00,
2013-11-30 18:40:00,32.1,16.4,30.48,SSE,156,5.7,8.1,52,0.00,OVC,,0.00,0.0,WeatherDisplay:10.37,2013-11-30 23:40:00,
2013-11-30 18:45:00,32.4,16.7,30.48,SSE,158,0.8,8.1,52,0.00,OVC,,0.00,0.0,WeatherDisplay:10.37,2013-11-30 23:45:00,
2013-11-30 18:50:00,32.2,16.5,30.48,SSE,158,0.5,4.5,52,0.00,OVC,,0.00,0.0,WeatherDisplay:10.37,2013-11-30 23:50:00,
2013-11-30 18:55:00,32.1,16.4,30.47,SSE,153,2.9,8.1,52,0.00,OVC,,0.00,0.0,WeatherDisplay:10.37,2013-11-30 23:55:00,
2013-11-30 19:00:00,32.1,16.4,30.47,SSE,153,0.4,3.5,52,0.00,OVC,,0.00,0.0,WeatherDisplay:10.37,2013-12-01 00:00:00,
2013-11-30 19:05:00,32.4,16.7,30.47,SSE,153,0.0,5.8,52,0.00,OVC,,0.00,0.0,WeatherDisplay:10.37,2013-12-01 00:05:00,
2013-11-30 19:10:00,32.4,16.7,30.47,SSE,153,2.4,8.1,52,0.00,OVC,,0.00,0.0,WeatherDisplay:10.37,2013-12-01 00:10:00,
2013-11-30 19:15:00,32.2,16.5,30.46,SSE,152,2.4,9.2,52,0.00,OVC,,0.00,0.0,WeatherDisplay:10.37,2013-12-01 00:15:00,
2013-11-30 19:20:00,32.2,16.5,30.46,SSE,152,4.3,9.2,52,0.00,OVC,,0.00,0.0,WeatherDisplay:10.37,2013-12-01 00:20:00,
2013-11-30 19:25:00,32.2,16.5,30.47,SE,144,4.0,6.0,52,0.00,OVC,,0.00,0.0,WeatherDisplay:10.37,2013-12-01 00:25:00,
2013-11-30 19:30:00,32.1,16.4,30.47,SE,144,0.0,9.2,52,0.00,OVC,,0.00,0.0,WeatherDisplay:10.37,2013-12-01 00:30:00,
2013-11-30 19:35:00,31.8,16.2,30.47,SE,145,0.4,3.5,52,0.00,OVC,,0.00,0.0,WeatherDisplay:10.37,2013-12-01 00:35:00,
2013-11-30 19:40:00,31.6,16.4,30.47,SE,145,0.0,0.0,53,0.00,OVC,,0.00,0.0,WeatherDisplay:10.37,2013-12-01 00:40:00,
2013-11-30 19:45:00,31.5,16.3,30.46,SE,146,0.7,3.5,53,0.00,OVC,,0.00,0.0,WeatherDisplay:10.37,2013-12-01 00:45:00,
2013-11-30 19:50:00,31.5,16.3,30.46,SE,146,0.1,1.5,53,0.00,OVC,,0.00,0.0,WeatherDisplay:10.37,2013-12-01 00:50:00,
2013-11-30 19:55:00,31.6,16.4,30.47,SE,143,0.6,1.2,53,0.00,OVC,,0.00,0.0,WeatherDisplay:10.37,2013-12-01 00:55:00,
2013-11-30 20:00:00,31.6,16.4,30.47,SE,143,1.2,4.6,53,0.00,OVC,,0.00,0.0,WeatherDisplay:10.37,2013-12-01 01:00:00,
2013-11-30 20:05:00,31.5,16.3,30.46,SE,143,0.0,1.2,53,0.00,OVC,,0.00,0.0,WeatherDisplay:10.37,2013-12-01 01:05:00,
2013-11-30 20:10:00,31.3,16.6,30.46,SE,142,4.7,9.2,54,0.00,OVC,,0.00,0.0,WeatherDisplay:10.37,2013-12-01 01:10:00,
2013-11-30 20:15:00,31.5,16.7,30.46,SE,143,1.3,4.6,54,0.00,FEW,,0.00,0.0,WeatherDisplay:10.37,2013-12-01 01:15:00,
2013-11-30 20:20:00,31.5,16.3,30.46,SE,144,2.8,9.2,53,0.00,FEW,,0.00,0.0,WeatherDisplay:10.37,2013-12-01 01:20:00,
2013-11-30 20:25:00,31.5,16.3,30.45,SE,144,3.3,7.5,53,0.00,FEW,,0.00,0.0,WeatherDisplay:10.37,2013-12-01 01:25:00,
2013-11-30 20:30:00,31.5,16.3,30.45,SE,144,0.1,1.5,53,0.00,FEW,,0.00,0.0,WeatherDisplay:10.37,2013-12-01 01:30:00,
2013-11-30 20:35:00,31.0,15.8,30.45,SE,144,0.0,4.6,53,0.00,FEW,,0.00,0.0,WeatherDisplay:10.37,2013-12-01 01:35:00,
2013-11-30 20:40:00,30.9,16.2,30.44,SE,144,1.7,3.5,54,0.00,FEW,,0.00,0.0,WeatherDisplay:10.37,2013-12-01 01:40:00,
2013-11-30 20:44:00,30.7,16.0,30.44,SE,144,0.2,1.2,54,0.00,FEW,,0.00,0.0,WeatherDisplay:10.37,2013-12-01 01:44:00,
2013-11-30 20:49:00,30.4,15.7,30.44,SE,144,0.0,0.0,54,0.00,FEW,,0.00,0.0,WeatherDisplay:10.37,2013-12-01 01:49:00,
2013-11-30 20:54:00,30.1,15.9,30.44,SE,144,0.0,3.5,55,0.00,FEW,,0.00,0.0,WeatherDisplay:10.37,2013-12-01 01:54:00,
2013-11-30 20:59:00,30.1,15.9,30.44,SE,144,1.0,6.0,55,0.00,FEW,,0.00,0.0,WeatherDisplay:10.37,2013-12-01 01:59:00,
2013-11-30 21:04:00,30.1,15.9,30.44,SE,144,0.0,0.0,55,0.00,SCT,,0.00,0.0,WeatherDisplay:10.37,2013-12-01 02:04:00,
2013-11-30 21:09:00,30.1,16.3,30.44,SE,144,0.3,1.5,56,0.00,SCT,,0.00,0.0,WeatherDisplay:10.37,2013-12-01 02:09:00,
2013-11-30 21:14:00,30.3,16.5,30.43,SE,144,2.1,5.8,56,0.00,SCT,,0.00,0.0,WeatherDisplay:10.37,2013-12-01 02:14:00,
2013-11-30 21:19:00,30.1,16.3,30.43,SE,144,0.0,0.0,56,0.00,SCT,,0.00,0.0,WeatherDisplay:10.37,2013-12-01 02:19:00,
2013-11-30 21:24:00,29.8,16.0,30.43,SE,144,0.0,0.0,56,0.00,SCT,,0.00,0.0,WeatherDisplay:10.37,2013-12-01 02:24:00,
2013-11-30 21:29:00,29.7,16.3,30.43,SE,144,0.0,0.0,57,0.00,SCT,,0.00,0.0,WeatherDisplay:10.37,2013-12-01 02:29:00,
2013-11-30 21:34:00,29.5,16.1,30.43,SE,144,0.0,0.0,57,0.00,SCT,,0.00,0.0,WeatherDisplay:10.37,2013-12-01 02:34:00,
2013-11-30 21:39:00,29.5,16.1,30.42,SE,144,0.0,0.0,57,0.00,SCT,,0.00,0.0,WeatherDisplay:10.37,2013-12-01 02:39:00,
2013-11-30 21:44:00,29.5,16.5,30.42,SE,144,0.0,0.0,58,0.00,SCT,,0.00,0.0,WeatherDisplay:10.37,2013-12-01 02:44:00,
2013-11-30 21:49:00,29.5,16.5,30.42,SE,144,0.0,0.0,58,0.00,SCT,,0.00,0.0,WeatherDisplay:10.37,2013-12-01 02:49:00,
2013-11-30 21:54:00,29.5,16.5,30.42,SE,144,0.3,1.2,58,0.00,SCT,,0.00,0.0,WeatherDisplay:10.37,2013-12-01 02:54:00,
2013-11-30 21:59:00,29.5,16.9,30.42,SE,144,0.2,1.2,59,0.00,SCT,,0.00,0.0,WeatherDisplay:10.37,2013-12-01 02:59:00,
2013-11-30 22:04:00,29.8,17.2,30.42,SE,145,0.0,0.0,59,0.00,SCT,,0.00,0.0,WeatherDisplay:10.37,2013-12-01 03:04:00,
2013-11-30 22:09:00,29.8,17.2,30.41,SE,145,1.5,4.5,59,0.00,SCT,,0.00,0.0,WeatherDisplay:10.37,2013-12-01 03:09:00,
2013-11-30 22:14:00,29.8,16.8,30.41,SE,144,0.1,1.2,58,0.00,SCT,,0.00,0.0,WeatherDisplay:10.37,2013-12-01 03:14:00,
2013-11-30 22:19:00,29.8,17.2,30.41,SE,145,2.3,6.0,59,0.00,SCT,,0.00,0.0,WeatherDisplay:10.37,2013-12-01 03:19:00,
2013-11-30 22:24:00,30.0,17.4,30.41,SE,145,0.0,0.0,59,0.00,SCT,,0.00,0.0,WeatherDisplay:10.37,2013-12-01 03:24:00,
2013-11-30 22:29:00,30.1,17.5,30.41,SE,145,0.0,0.0,59,0.00,SCT,,0.00,0.0,WeatherDisplay:10.37,2013-12-01 03:29:00,
2013-11-30 22:34:00,30.1,17.5,30.41,SE,145,0.1,1.2,59,0.00,SCT,,0.00,0.0,WeatherDisplay:10.37,2013-12-01 03:34:00,
2013-11-30 22:39:00,30.1,17.5,30.40,SE,145,0.4,1.5,59,0.00,SCT,,0.00,0.0,WeatherDisplay:10.37,2013-12-01 03:39:00,
2013-11-30 22:44:00,30.0,17.4,30.40,SE,145,0.0,0.0,59,0.00,SCT,,0.00,0.0,WeatherDisplay:10.37,2013-12-01 03:44:00,
2013-11-30 22:49:00,30.0,17.4,30.40,SE,145,0.1,1.5,59,0.00,SCT,,0.00,0.0,WeatherDisplay:10.37,2013-12-01 03:49:00,
2013-11-30 22:54:00,30.1,17.5,30.40,SE,145,0.3,1.2,59,0.00,SCT,,0.00,0.0,WeatherDisplay:10.37,2013-12-01 03:54:00,
2013-11-30 22:59:00,30.1,17.5,30.40,SE,145,0.3,3.5,59,0.00,SCT,,0.00,0.0,WeatherDisplay:10.37,2013-12-01 03:59:00,
2013-11-30 23:04:00,30.1,17.5,30.39,SE,144,0.6,3.0,59,0.00,FEW,,0.00,0.0,WeatherDisplay:10.37,2013-12-01 04:04:00,
2013-11-30 23:09:00,30.1,17.9,30.39,SE,144,0.5,3.5,60,0.00,FEW,,0.00,0.0,WeatherDisplay:10.37,2013-12-01 04:09:00,
2013-11-30 23:14:00,30.4,17.8,30.38,SE,144,0.0,5.8,59,0.00,FEW,,0.00,0.0,WeatherDisplay:10.37,2013-12-01 04:14:00,
2013-11-30 23:19:00,30.6,18.0,30.38,SSE,147,0.9,3.5,59,0.00,FEW,,0.00,0.0,WeatherDisplay:10.37,2013-12-01 04:19:00,
2013-11-30 23:24:00,30.6,18.0,30.39,SSE,148,0.0,0.0,59,0.00,FEW,,0.00,0.0,WeatherDisplay:10.37,2013-12-01 04:24:00,
2013-11-30 23:29:00,30.6,18.0,30.39,SSE,148,0.2,3.5,59,0.00,FEW,,0.00,0.0,WeatherDisplay:10.37,2013-12-01 04:29:00,
2013-11-30 23:34:00,30.6,18.0,30.38,SSE,147,0.0,0.0,59,0.00,FEW,,0.00,0.0,WeatherDisplay:10.37,2013-12-01 04:34:00,
2013-11-30 23:39:00,30.4,17.8,30.38,SSE,148,0.0,0.0,59,0.00,FEW,,0.00,0.0,WeatherDisplay:10.37,2013-12-01 04:39:00,
2013-11-30 23:44:00,30.4,17.8,30.38,SSE,147,0.0,1.2,59,0.00,FEW,,0.00,0.0,WeatherDisplay:10.37,2013-12-01 04:44:00,
2013-11-30 23:49:00,30.4,17.8,30.38,SSE,147,0.0,0.0,59,0.00,FEW,,0.00,0.0,WeatherDisplay:10.37,2013-12-01 04:49:00,
2013-11-30 23:54:00,30.3,17.7,30.38,SSE,147,0.5,1.2,59,0.00,FEW,,0.00,0.0,WeatherDisplay:10.37,2013-12-01 04:54:00,
2013-11-30 23:59:00,30.4,17.8,30.38,SSE,147,0.0,0.0,59,0.00,FEW,,0.00,0.0,WeatherDisplay:10.37,2013-12-01 04:59:00,